NOAA 16 DEB, 41708

Orbit data source: Space-Track

NOAA 16 DEB, 41708 is space debris in SSO originally from a launch on Thu, 21 Sep 2000 UTC launched from the Air Force Western Test Range (AFWTR). Debris objects in space refer to the collection of defunct objects orbiting the Earth. Examples of debris include non-operational satellites, rocket bodies, and fragments generated from explosions, collisions, or faulty payload assembly.

Loading next visibility...
Identifier
41708, 2000-055PN
Orbit
SSO
Country
Flag of USUS
Related business
Manufacturer
Unknown
Mission
Spacecraft
Bus & Motor
Unknown
Mass
Unknown
Launch date (UTC)
2000-09-21 (26 years ago)
Launch vehicle
Unknown
Launch site
Air Force Western Test Range (AFWTR)
Object type
Payload
Rocket body
Debris
Shape & HBR
Unknown shape, 0.1 m
Radar Cross Section
Small (<0.1 m²)

Expand to show TLE details & history
Last TLE update: 2 days ago

TLE from 2 days ago
0 NOAA 16 DEB
1 41708U 00055PN  26171.34239669  .00005880  00000-0  16612-2 0  9998
2 41708  98.8676 307.2655 0012850 126.4296 233.8081 14.46001689527424
Epoch: 2026-06-20T08:13Z
TLE epoch observation values (Epoch: 2026-06-20T08:13:03.074Z)
Latitude
Longitude
-84.5557°
Altitude
747.091 km
Speed
7.478 km/s
True Right ascension
20h 29m 03s
True Declination
0° 00' 00"
Sunlit
Object was in full shadow at epoch
Visualization orbit readout
Latitude
Unknown
Longitude
Unknown
Altitude
Unknown
Speed
Unknown
Apparent Right ascension
Unknown
Apparent Declination
Unknown
Sunlit
N/A
Visualization observer readout
Local Sidereal Time
21:36:04
Azimuth
Unknown
Elevation
Unknown
Doppler factor
Unknown
Orbital elements
Apogee altitude
745.011 km
Perigee altitude
726.728 km
Semi-major axis
7,114.006 km
Eccentricity
0.00129
Inclination
98.8676°
RAAN
307.2655°
Arg. of periapsis
126.4296°
True anomaly
233.68938°
Mean anomaly
233.8081°
Eccentric anomaly
233.74873°
Mean motion
3.61719 °/min
Orbital period
99.52 mins
BSTAR
0.0016612
Loading maneuver chart data...
Computing Atmospheric mass density...
Loading historical data...
Loading historical data...
Loading historical data...
Loading historical data...
Loading historical data...
Loading historical data...
Loading historical data...

Documentation

Showing up to 5 results
|